Regional Weather Roundup
Issued by NWS

Home | Current Version | Previous Version | Graphics & Text | Print | Product List | Glossary On
Versions: 1 2 3 4 5 6 7 8 9 10 11 12 13 14 15 16 17 18 19 20 21 22 23 24 25 26 27 28 29 30 31 32 33 34 35 36 37 38 39 40 41 42 43 44 45 46 47 48 49 50
000
ASUS45 KSLC 172310
RWRUT

UTAH REGIONAL WEATHER ROUNDUP
NATIONAL WEATHER SERVICE SALT LAKE CITY UT
500 PM MDT THU AUG 17 2017

UTZ001>011-023>025-180000-

NORTHERN UTAH

CITY           SKY/WX    TMP DP  RH WIND       PRES   REMARKS
BRIGHAM CITY   SUNNY     88  26  10 S7G16     30.09F
HILL AFB       SUNNY     86  35  16 W8        30.14F
LOGAN          SUNNY     88  35  15 SW10      30.09F
OGDEN          SUNNY     87  33  14 W8        30.10F
SALT LAKE CITY MOSUNNY   91  39  16 N10       30.08F
TOOELE VALLEY  SUNNY     86  45  23 N9        30.10S
WENDOVER       SUNNY     91  37  15 SE8       30.06F
HEBER CITY     SUNNY     88  32  13 SW8       30.16S
WEST JORDAN    SUNNY     87  54  31 NW10G20   30.12F

$$

UTZ011>015-024>027-180000-

CENTRAL/NORTHEAST UTAH

CITY           SKY/WX    TMP DP  RH WIND       PRES   REMARKS
PROVO AIRPORT  MOSUNNY   89  41  18 NW3       30.10F
MOAB/CANYONLAN SUNNY     92  30  11 W9        30.06F
DELTA          SUNNY     88  30  12 W8        30.12F
PRICE          MOSUNNY   85  35  16 VRB5      30.18F
ROOSEVELT      CLOUDY    86  34  15 CALM      30.13F
VERNAL         SUNNY     87  43  21 N14       30.14F

$$

UTZ013>016-019>022-027-180000-

SOUTHERN UTAH

CITY           SKY/WX    TMP DP  RH WIND       PRES   REMARKS
BRYCE CANYON   PTSUNNY   76  35  22 SW8       30.34F
CEDAR CITY     MOSUNNY   86  34  15 VRB3      30.17F
MILFORD        MOSUNNY   92  35  13 VRB6      30.12F
ST GEORGE      CLEAR     97  36  12 VRB3      29.97F HX  92
HANKSVILLE     MOSUNNY   91  32  12 SE6       30.07F
BLANDING       MOSUNNY   85  29  13 CALM      30.26F

$$

REGIONAL REPORTS     COLORADO/ARIZONA

CITY           SKY/WX    TMP DP  RH WIND       PRES   REMARKS
CRAIG, CO      MOSUNNY   85  29  13 W17G23    30.18F
GRAND JUNCTION SUNNY     90  32  12 NW14G25   30.09F
RIFLE, CO      SUNNY     83  33  16 N5        30.16S
MONTROSE, CO   CLOUDY    83  35  18 N7        30.19S
CORTEZ, CO     SUNNY     87  25  10 CALM      30.19F
COLORADO CITY    N/A     91  36  14 SW3       30.16F
PAGE, AZ       SUNNY     94  31  10 VRB5      30.07F
GRAND CANYON   MOSUNNY   81  28  14 SW7       30.29S
KINGMAN, AZ    SUNNY     94  41  16 MISG      30.04F HX  90
FLAGSTAFF, AZ  SUNNY     76  26  15 SW12      30.32F

$$

REGIONAL REPORTS    NEVADA/IDAHO/WYOMING

CITY           SKY/WX    TMP DP  RH WIND       PRES   REMARKS
LAS VEGAS, NV  MOSUNNY  100  41  13 E8        29.93F HX  95
ELY, NY        MOSUNNY   84  33  16 NE6       30.22F
ELKO, NV       SUNNY     88  24  10 SW9       30.14F
POCATELLO, ID  SUNNY     85  34  16 W15G25    30.12F
BURLEY, ID     SUNNY     81  43  26 W13G21    30.10F
FORT BRIDGER,    N/A     80  29  15 W20G26    30.29S
EVANSTON, WY   MOSUNNY   78  35  21 W17G31    30.29S
ROCK SPRINGS,  CLOUDY    81  31  16 W22G30    30.21S
KEMMERER, WY     N/A    N/A N/A N/A W20G33    30.28S

$$



USA.gov is the U.S. government's official web portal to all federal, state and local government web resources and services.